Wind_Speed
40 41 41 43 43 40 39 38 38 39 39 38 37 39 41 37 31 31 34 35 32 29 29 32 34 32 28 27 28 27 26 24 24 25 29 29 27 27 26 26 23 20 21 20 17 16 15 16 13 11 11 9 6 8 9 8 9 6 3 2 2 3 3 4 5 5 3 1 5 9 9 6 4 7 8 6 7 12 12 9 10 12 12 8 6 4 5 11
40 41 42 43 43 42 40 39 38 39 39 39 37 37 38 37 35 31 31 34 33 29 28 31 34 34 30 27 27 27 25 25 25 28 31 27 26 28 24 24 25 20 20 21 20 17 15 15 14 11 9 8 5 7 9 8 9 5 3 2 4 4 4 6 6 5 3 3 8 11 9 8 7 10 11 6 6 9 8 7 9 10 11 10 9 7 8 11
41 43 43 43 44 43 41 40 39 38 39 40 38 37 36 36 36 33 29 31 33 30 27 29 33 34 31 28 26 25 24 23 26 33 34 29 27 28 25 23 25 22 19 20 21 20 16 12 12 12 10 8 6 6 7 7 8 4 3 2 5 4 3 5 6 6 7 7 9 11 9 9 9 12 12 7 7 7 7 10 10 12 14 12 11 10 10 13
41 42 43 44 45 44 43 41 40 38 39 40 39 38 37 36 36 35 30 28 31 31 28 28 31 33 32 29 26 24 22 18 27 38 35 31 29 27 26 24 25 23 20 19 20 20 19 14 10 11 11 8 6 5 5 8 8 4 5 4 5 4 3 9 11 10 10 9 9 10 8 7 11 13 11 10 6 4 11 18 16 13 15 14 13 12 12 14
42 42 44 45 44 44 44 42 41 40 39 40 41 38 38 37 36 35 31 28 29 30 29 27 29 33 32 30 27 25 21 9 19 37 35 33 32 28 27 25 25 24 21 19 19 20 19 16 12 10 9 6 5 4 5 10 8 4 5 4 4 6 4 9 12 10 10 9 8 9 8 8 11 11 13 13 8 7 14 20 19 14 12 12 13 13 14 15
42 42 45 46 45 44 44 43 41 40 39 40 41 40 38 37 36 35 34 31 29 30 30 28 29 32 32 30 28 27 25 8 5 24 36 35 32 30 28 26 26 25 22 20 20 20 18 17 13 10 8 4 5 5 7 12 9 4 5 4 6 8 6 7 10 10 9 9 10 11 9 9 11 7 13 17 14 13 11 13 16 13 12 11 11 14 16 16
42 41 43 45 45 43 44 43 42 40 39 39 40 41 39 37 36 35 35 34 30 30 31 30 29 31 32 31 29 28 31 18 1 10 29 35 34 31 29 28 28 27 25 23 22 20 18 17 16 13 8 3 5 7 11 13 11 6 4 5 8 11 13 11 10 11 11 11 13 12 10 11 12 6 10 18 19 16 9 8 11 12 13 14 14 16 16 16
43 42 41 43 44 43 43 43 42 41 39 39 39 41 40 37 36 35 35 35 32 30 31 32 31 33 34 32 33 29 33 30 10 5 15 29 35 33 30 30 31 31 28 25 24 22 21 19 19 15 7 4 5 7 11 10 7 7 6 6 6 10 16 17 13 12 12 13 12 10 10 13 15 8 7 16 18 13 10 9 9 11 15 17 17 17 17 18
44 43 41 42 44 44 44 44 43 42 39 39 39 40 40 38 37 36 36 34 33 31 30 32 33 35 34 34 33 24 32 37 19 8 10 22 34 34 33 33 33 33 31 27 25 23 22 21 21 17 8 8 9 7 10 8 4 9 13 10 6 10 15 15 16 16 14 14 12 9 9 12 12 7 7 16 18 14 14 13 12 13 16 18 18 19 18 19
44 43 42 42 44 44 44 45 44 42 39 38 38 39 40 39 38 37 36 34 35 34 32 33 34 36 35 37 30 16 30 40 27 18 12 17 32 37 36 35 35 35 33 31 27 25 25 21 22 20 11 9 11 8 8 8 5 10 17 15 11 13 12 9 13 17 15 13 14 11 8 10 9 6 6 11 13 15 17 16 16 16 17 18 19 19 19 19
44 44 43 42 45 45 44 45 45 43 40 38 38 39 40 40 39 37 36 35 36 34 33 34 34 36 38 39 30 17 26 37 33 25 14 12 26 39 41 38 38 38 36 34 31 29 27 23 22 20 9 4 7 6 7 9 9 10 14 12 13 15 11 8 9 12 11 9 14 13 6 8 7 5 8 9 9 14 18 18 17 18 18 19 20 20 21 21
45 44 44 43 44 46 45 45 45 44 42 40 38 38 39 40 38 36 36 36 36 35 34 35 35 36 37 36 35 29 27 31 34 29 18 10 16 32 41 39 38 39 37 35 33 30 28 25 24 20 10 4 5 2 6 12 13 11 8 5 8 9 8 9 9 9 10 6 10 10 2 7 8 9 14 15 12 13 16 19 19 20 21 21 22 23 24 24
47 44 44 44 44 46 46 44 45 45 44 42 40 39 39 40 37 36 36 36 37 35 33 34 34 35 33 29 35 38 30 26 30 32 27 18 12 24 37 38 37 38 37 35 33 30 29 27 25 23 14 6 5 3 4 6 10 9 4 3 4 3 5 9 8 7 9 5 9 10 2 8 11 14 18 19 17 15 16 18 20 21 22 24 25 26 27 27
49 46 45 45 44 47 47 44 45 46 45 43 41 40 39 38 37 36 36 35 36 35 32 31 31 34 31 25 30 37 35 25 22 30 32 24 17 21 31 36 35 36 36 33 30 28 29 27 25 22 15 9 5 3 3 2 3 3 1 2 3 3 5 7 8 9 7 5 10 10 4 9 9 12 17 20 20 20 21 22 22 23 24 25 26 28 29 29
48 47 46 46 45 46 47 45 45 44 42 41 40 39 38 38 38 37 35 34 33 32 31 30 31 32 27 22 24 31 38 29 18 24 29 25 22 22 29 34 33 33 33 31 28 27 27 26 23 17 13 11 5 1 2 2 1 1 3 3 2 4 5 6 5 13 10 5 9 9 4 8 7 12 18 19 21 21 25 28 27 28 28 29 29 29 31 31
48 46 47 47 45 45 47 46 45 44 41 40 40 38 36 36 36 36 34 32 30 30 31 29 32 30 17 13 19 26 35 32 21 21 24 25 23 23 28 31 31 32 31 29 27 25 26 23 18 15 11 9 5 2 2 1 3 3 5 4 2 4 3 4 3 12 12 3 6 8 4 5 5 9 13 14 19 19 20 26 27 28 29 29 30 31 32 33
49 47 47 48 45 45 47 46 46 46 43 41 40 36 34 33 33 33 31 30 29 30 31 29 29 23 10 9 16 24 32 33 26 22 23 25 23 22 27 31 31 31 29 26 23 24 24 19 11 9 7 5 4 4 3 7 7 4 3 4 3 3 4 3 2 8 10 3 4 7 6 10 7 5 4 4 9 13 17 22 24 25 27 27 29 30 32 33
50 48 48 48 47 46 47 47 47 47 45 42 38 35 32 30 30 31 30 31 30 28 26 25 23 13 7 12 17 24 31 31 30 26 25 27 23 21 28 32 30 29 25 19 17 20 19 13 7 3 3 4 5 7 8 8 7 6 5 4 3 1 4 6 2 5 9 4 5 6 6 14 13 9 12 10 7 9 14 19 22 24 26 27 28 29 31 33
49 49 48 48 48 48 49 50 48 46 46 41 37 35 30 27 29 30 32 32 29 20 11 18 24 9 2 15 21 25 29 29 31 29 28 29 24 23 29 30 30 28 22 13 12 18 16 8 5 4 6 9 10 12 10 5 6 8 7 5 4 3 4 5 4 5 9 7 7 8 8 14 15 11 14 22 20 17 17 18 21 24 26 27 29 31 32 34
49 48 47 47 47 47 49 51 47 44 44 41 39 35 29 26 20 19 29 34 32 23 9 18 35 19 0 13 23 23 25 28 33 33 30 29 28 27 27 26 26 20 14 10 9 17 18 8 6 11 12 14 14 13 9 4 5 7 6 5 6 6 5 4 4 5 6 8 7 9 10 13 17 11 11 23 24 20 22 22 24 27 28 29 30 31 32 33
50 49 46 46 47 47 47 50 48 44 42 43 44 37 32 32 18 15 30 29 29 30 14 17 35 22 3 13 25 26 26 26 30 34 31 29 31 26 22 22 18 10 11 12 8 11 16 10 12 18 16 14 13 11 9 5 5 6 6 6 5 6 5 4 5 3 1 5 4 6 8 11 15 13 14 20 16 15 25 25 25 30 32 34 34 33 33 32
49 49 47 46 47 47 47 49 49 45 43 45 47 40 36 40 30 30 36 19 18 27 13 14 28 21 8 15 25 27 27 21 19 28 32 32 31 23 19 18 12 9 11 11 9 7 8 10 17 21 15 11 9 10 11 7 5 4 4 5 4 4 1 3 3 3 2 4 4 5 7 9 12 14 15 17 14 19 30 31 30 32 32 36 37 37 37 36
48 49 49 46 46 47 47 50 48 46 46 47 49 43 38 40 34 36 33 12 9 17 9 14 26 23 14 15 25 28 25 21 17 25 35 36 31 24 20 14 10 11 10 9 10 9 8 13 19 16 11 10 8 9 10 6 4 4 4 5 3 3 3 3 4 4 1 3 3 4 7 8 9 12 13 18 21 24 32 35 34 34 33 37 39 39 39 40
48 49 50 48 48 47 48 51 48 46 49 48 48 44 39 38 36 37 27 9 3 10 6 13 23 27 20 14 24 28 21 22 23 25 36 38 30 23 19 16 12 9 8 12 14 12 11 9 10 12 12 15 11 8 10 7 6 5 5 6 4 5 6 4 2 3 3 3 3 3 9 11 9 12 14 17 19 21 29 33 32 35 37 39 40 40 41 42
49 50 50 50 49 49 50 50 48 49 50 46 46 43 39 35 33 37 24 7 2 7 5 11 15 22 24 15 21 25 16 18 24 29 37 39 33 22 16 19 14 8 12 15 13 12 13 7 15 14 12 12 9 7 11 10 7 7 7 9 8 7 7 4 3 0 3 5 4 3 6 9 5 11 15 12 10 13 21 26 27 34 38 38 40 43 45 45
49 49 50 51 50 50 50 47 50 52 47 46 45 41 41 35 31 35 21 5 1 4 4 12 11 16 23 17 20 22 10 9 19 30 37 37 35 24 13 13 10 10 16 13 7 5 7 9 14 14 10 11 10 9 11 11 8 7 6 7 7 8 8 6 6 3 3 5 4 2 4 8 4 7 10 9 8 10 14 16 21 31 34 34 39 44 46 46
49 50 51 52 51 52 50 46 51 51 44 46 46 42 42 36 32 33 16 3 4 6 8 12 9 15 22 17 23 19 5 9 15 24 37 37 33 23 13 9 6 9 13 8 5 4 6 11 11 12 12 10 10 11 11 13 9 6 6 11 8 7 8 7 7 5 4 3 3 1 3 7 11 6 7 8 9 10 11 11 15 25 31 34 38 43 45 47
49 51 51 52 51 53 53 48 50 51 48 49 47 44 42 36 33 28 10 1 5 8 9 10 9 16 20 21 28 16 4 15 13 16 37 39 32 20 9 11 10 9 13 11 9 8 10 14 14 15 13 9 13 13 12 15 10 5 8 11 8 6 6 6 6 4 1 2 5 4 3 4 12 6 6 8 11 13 13 12 13 21 29 34 38 42 44 46
47 50 52 53 51 52 52 47 50 53 51 50 46 42 41 38 30 15 2 2 5 4 8 14 12 14 17 19 25 16 6 10 6 15 34 33 29 19 7 15 15 9 14 15 11 6 5 13 16 13 10 9 11 8 11 14 8 5 8 8 6 6 5 4 5 4 2 2 9 7 5 4 13 8 5 5 10 13 12 10 11 21 31 35 37 40 40 40
47 48 52 54 51 51 47 42 49 51 48 48 43 41 43 36 20 7 5 5 2 3 10 15 13 15 17 12 12 13 7 4 7 20 27 21 23 20 10 16 16 7 8 11 10 4 2 6 13 9 9 8 6 8 13 14 9 9 7 7 6 5 4 3 3 3 2 6 12 12 10 8 11 8 6 7 7 8 8 6 8 19 30 35 36 38 39 38
48 48 50 53 53 54 47 41 47 48 47 48 44 42 38 21 6 4 8 5 4 4 10 11 11 14 16 10 7 10 6 3 9 16 13 9 12 13 7 9 9 5 5 6 8 5 2 4 7 7 12 12 10 7 8 11 14 10 5 5 4 2 1 1 1 1 4 9 12 12 12 11 11 8 4 5 5 5 8 8 8 14 25 33 37 38 40 40
48 47 48 51 54 54 50 46 49 50 50 50 47 41 25 6 2 4 5 7 5 5 7 9 10 12 14 12 9 11 7 4 8 10 10 8 7 7 8 8 8 6 6 7 9 8 4 3 3 5 12 16 11 5 4 7 10 7 5 7 5 3 3 4 4 4 7 10 7 5 9 9 13 14 8 8 7 5 8 11 14 17 24 32 34 34 34 33
46 46 46 51 52 52 49 47 50 52 51 53 47 30 11 4 6 5 4 5 3 3 8 11 11 13 17 15 10 11 9 4 7 9 10 10 9 8 8 8 8 4 4 9 10 8 5 5 5 5 8 15 14 8 6 7 8 9 9 10 9 6 5 7 8 5 7 10 4 4 6 5 10 13 13 15 15 15 17 18 21 24 26 30 30 29 26 23
45 46 47 50 51 50 47 47 51 52 53 52 36 15 8 7 5 6 5 4 0 4 9 11 12 14 15 14 10 11 9 5 8 9 8 9 9 9 7 7 7 1 3 6 6 8 9 7 9 8 7 16 17 13 13 11 11 14 11 9 10 7 6 8 7 7 8 7 2 4 4 5 7 5 5 9 12 19 24 24 25 27 28 30 31 30 25 19
44 45 47 47 48 47 44 47 51 52 55 46 20 6 10 7 3 5 6 3 1 4 8 11 13 11 10 9 8 11 9 5 9 9 8 9 7 9 9 7 8 3 4 5 2 5 9 6 6 10 10 16 16 13 15 12 7 8 5 6 9 8 6 3 3 6 6 3 2 4 4 5 6 8 8 8 7 9 17 21 23 27 31 33 34 35 33 27
42 45 47 45 46 46 45 49 52 55 55 36 9 5 7 2 2 6 6 5 5 8 11 11 10 7 7 6 5 11 7 3 8 8 6 8 8 9 8 6 9 7 4 6 2 2 6 3 2 8 8 14 18 15 16 14 8 4 5 7 7 6 5 2 2 1 3 3 5 5 6 6 7 13 15 14 10 7 9 13 18 28 35 33 32 37 40 38
42 42 44 45 46 45 47 52 54 58 51 25 6 6 3 1 3 4 6 7 7 13 13 9 7 7 8 6 6 12 8 3 8 7 4 7 7 9 8 6 12 13 7 5 1 0 5 1 1 8 9 13 19 16 12 14 9 5 9 10 2 1 1 2 3 1 3 5 5 6 11 10 7 9 8 9 15 12 7 9 14 24 31 29 33 40 42 42
42 38 37 41 47 45 46 50 53 53 39 15 7 5 2 1 3 3 7 9 9 12 9 5 6 6 8 8 7 11 11 7 10 8 6 6 5 10 12 6 11 19 17 10 1 1 3 1 2 8 9 7 9 8 5 8 4 2 5 9 5 1 3 4 4 3 4 6 5 8 13 10 9 11 6 5 13 14 11 11 11 15 21 26 34 40 40 38
42 31 23 33 46 45 44 48 51 43 22 8 9 5 1 2 2 4 12 13 9 10 8 4 4 5 8 10 8 10 12 11 10 8 7 7 4 10 15 10 8 17 22 17 6 1 3 3 2 3 4 4 5 5 6 6 4 1 2 4 4 3 4 6 6 5 6 7 7 8 9 8 10 15 14 10 10 11 12 13 12 14 22 28 32 34 33 29
41 21 11 30 44 42 45 47 41 26 9 5 8 5 3 3 1 5 14 14 6 4 6 5 5 7 9 9 8 9 9 10 10 8 6 7 5 6 12 12 7 10 19 18 9 3 2 3 3 2 1 3 4 6 10 12 9 6 5 6 6 4 2 2 4 5 5 5 6 8 9 9 7 8 11 13 11 11 13 13 12 19 30 34 35 36 34 27
36 12 6 32 42 42 48 38 19 9 3 3 4 3 5 4 2 4 8 11 7 3 3 6 7 8 9 9 8 7 7 7 8 7 5 7 7 4 8 13 9 9 12 11 8 7 4 3 5 2 2 5 5 4 8 12 12 10 8 8 9 9 6 4 6 7 5 5 5 5 10 11 7 3 8 12 11 11 15 15 13 22 35 39 39 38 36 32
26 5 8 33 42 45 43 18 2 3 3 5 6 6 7 6 3 4 4 7 6 3 3 4 3 5 6 7 8 8 8 6 7 7 5 8 9 5 10 18 17 15 12 7 8 8 4 3 5 4 3 5 3 1 1 4 8 8 6 6 7 7 7 7 9 7 7 8 6 3 7 12 7 4 7 9 11 15 21 22 17 23 34 37 35 33 30 30
13 6 13 35 46 47 32 5 1 5 1 5 10 8 8 6 3 3 3 4 3 2 3 3 2 3 3 3 7 10 9 6 8 9 6 8 10 8 13 19 19 16 11 6 7 6 2 2 5 3 1 1 1 2 3 4 4 4 4 6 7 7 8 9 7 3 5 9 8 5 8 13 8 5 5 5 8 16 22 24 23 24 29 32 32 27 23 21
15 12 13 29 45 45 22 2 4 7 2 6 9 6 5 5 4 5 3 3 3 3 4 3 2 3 2 2 6 10 12 7 7 10 7 6 9 10 14 20 18 13 10 9 10 10 6 4 6 6 3 1 1 2 1 1 2 4 6 10 12 11 11 9 5 3 4 8 12 8 9 13 8 3 3 5 5 7 12 19 23 23 26 31 30 25 21 21
16 10 7 17 32 32 14 2 5 8 7 10 10 8 7 4 3 9 8 4 3 4 5 3 2 4 3 3 4 6 11 6 3 8 7 4 4 5 11 22 21 13 13 17 18 15 8 5 8 9 8 7 7 7 7 5 5 3 3 10 15 15 15 10 5 7 7 9 12 10 10 15 10 2 2 5 4 5 11 15 17 21 26 28 26 24 23 22
9 4 4 6 10 12 7 4 6 6 9 13 9 8 10 5 2 7 9 5 2 4 5 2 3 5 3 4 5 4 9 5 2 5 8 7 4 1 7 21 23 18 18 19 21 15 3 3 10 12 12 12 10 8 6 7 8 7 7 12 15 15 17 12 7 8 9 9 10 11 12 17 19 12 5 5 4 6 9 10 13 19 24 24 24 23 23 22
4 2 3 2 3 4 4 4 5 4 7 12 7 6 11 10 4 3 3 2 5 6 4 2 4 5 5 8 7 3 6 5 2 4 7 9 4 2 3 10 16 23 21 17 19 14 2 4 13 13 15 16 9 5 8 10 13 15 15 17 16 15 16 15 12 11 9 8 11 15 14 16 25 20 6 2 7 6 6 9 13 17 19 20 21 21 22 23
5 4 3 4 3 1 2 6 8 5 6 7 4 5 12 12 8 6 1 1 6 6 3 1 3 5 9 12 8 4 5 3 3 2 3 5 3 0 1 1 7 17 16 10 13 10 2 7 14 13 17 19 10 6 7 9 11 14 17 18 16 16 17 18 18 15 11 9 10 11 10 14 24 20 6 5 8 8 10 14 14 15 17 18 19 21 25 27
9 8 5 5 4 1 5 11 13 10 7 6 4 5 12 13 11 6 2 3 5 3 2 5 4 5 9 9 6 7 8 7 5 5 3 4 4 3 3 2 4 8 8 6 7 5 3 7 10 10 14 18 14 8 6 6 7 8 12 14 14 15 16 16 17 15 14 12 10 12 13 16 22 16 5 7 12 12 15 16 15 18 19 19 21 24 28 30
8 7 6 7 6 5 8 10 12 10 6 5 4 3 8 12 10 4 2 4 7 4 2 7 8 7 7 7 6 6 9 8 8 9 7 6 5 3 3 4 2 1 3 4 4 5 5 5 6 6 8 14 14 9 7 7 6 6 9 11 11 12 12 12 12 11 12 12 12 15 15 17 22 15 4 7 13 13 14 16 18 22 20 18 22 25 28 30
12 12 13 12 5 3 7 6 6 7 4 3 4 3 6 10 9 5 3 3 4 6 5 8 10 7 4 6 6 7 10 9 6 11 13 10 7 6 4 3 3 4 4 3 2 4 5 3 3 5 5 9 11 11 11 10 8 10 12 10 11 11 10 11 12 12 12 11 12 13 12 15 20 12 8 12 14 11 12 17 21 22 21 21 24 27 30 31
15 15 15 13 5 2 3 3 3 6 4 1 2 4 5 6 7 7 5 4 3 5 8 12 12 6 3 4 5 8 14 12 6 10 17 14 10 10 8 6 6 5 5 3 1 2 5 4 4 4 4 8 10 11 11 9 9 11 11 12 14 14 14 15 14 14 15 13 10 10 12 15 16 11 9 18 19 13 15 22 24 25 29 31 33 34 34 34
Wind_Direction
226 226 218 216 216 212 212 213 211 209 210 213 215 218 220 220 220 213 206 204 204 204 205 206 208 209 206 202 202 203 204 206 204 209 217 217 215 216 210 204 205 202 199 198 198 202 205 207 206 203 208 207 200 185 170 168 170 164 123 118 195 197 195 184 182 190 160 219 205 187 189 172 157 168 171 174 177 166 163 180 182 194 215 223 219 215 212 199
226 226 222 217 217 214 212 212 212 208 207 211 213 215 218 218 220 219 208 203 202 203 204 205 206 207 206 202 201 201 202 205 204 212 218 215 216 219 210 202 203 201 199 201 202 203 206 209 208 207 211 215 212 186 178 176 171 159 104 148 218 202 197 180 175 192 194 236 192 181 193 185 178 169 161 166 184 169 160 180 186 198 211 214 215 213 210 206
227 227 225 220 217 215 213 211 212 210 206 208 211 212 214 215 215 218 214 205 201 201 203 205 205 206 206 203 201 200 202 204 209 217 217 212 216 218 211 202 201 201 199 202 205 207 211 213 212 211 213 222 221 195 188 185 184 183 128 176 236 222 236 223 217 234 240 237 188 176 188 192 191 176 170 184 188 186 192 193 193 202 209 211 215 218 213 209
227 226 226 223 219 216 214 212 211 210 206 206 209 209 210 212 212 214 214 209 201 198 201 204 205 205 205 204 201 198 198 206 222 222 215 212 213 213 211 204 200 201 199 200 204 208 214 215 214 212 211 221 222 214 205 191 190 190 163 184 227 196 239 251 240 248 248 234 201 176 167 187 194 183 186 179 161 235 226 210 211 215 215 212 213 217 211 210
228 225 224 224 221 217 214 212 211 210 207 205 206 209 208 209 211 210 209 208 202 198 197 202 204 203 203 202 200 195 187 199 236 225 216 212 212 212 211 205 200 200 199 200 201 203 210 212 209 205 204 213 212 215 225 206 186 186 208 200 202 183 206 254 242 246 244 222 201 169 161 185 183 186 198 182 173 234 234 224 223 224 223 216 214 213 209 213
228 225 224 225 222 218 214 212 211 210 208 205 205 207 208 207 207 207 206 207 205 201 196 199 202 202 200 199 199 193 189 191 265 224 218 213 211 212 210 204 199 198 197 198 198 199 203 203 200 195 188 200 205 200 224 218 200 215 245 212 203 206 212 252 240 241 237 199 185 181 187 184 169 194 208 199 214 235 250 245 229 226 228 226 221 215 211 215
227 225 223 224 222 219 215 212 211 211 208 206 205 206 206 206 205 205 205 206 207 204 198 197 199 200 197 196 198 196 201 210 142 210 216 213 211 211 208 205 199 196 195 195 196 195 196 194 194 192 181 195 209 210 226 227 217 223 266 236 218 222 226 241 241 243 236 204 197 194 191 185 180 202 207 210 230 240 252 242 221 223 227 227 221 217 220 222
225 224 223 223 222 219 215 212 211 211 210 207 206 205 204 204 205 204 204 205 205 206 202 197 196 197 194 192 192 193 206 212 196 170 203 207 210 208 206 204 200 197 194 196 198 197 195 190 192 192 182 204 203 210 219 222 227 220 241 246 224 231 237 241 243 248 242 224 218 204 197 202 199 202 206 219 233 232 222 212 207 212 218 222 221 221 225 226
224 223 222 221 222 219 214 212 211 210 210 207 206 205 202 202 204 203 204 204 203 205 205 200 197 195 194 195 190 192 212 209 197 188 188 199 205 205 207 205 200 198 195 196 198 200 198 192 194 194 192 210 207 217 209 204 231 218 224 232 217 233 244 245 242 244 241 230 224 213 220 222 208 213 242 236 235 224 213 219 226 220 217 220 223 225 227 230
222 222 221 219 220 218 212 211 211 208 209 208 205 204 201 201 203 203 202 203 203 204 203 201 199 195 193 196 191 199 219 208 198 201 189 191 199 199 204 207 204 201 199 197 197 201 202 200 201 198 204 215 207 219 207 199 224 221 222 229 230 236 249 254 244 243 237 229 222 212 227 231 212 215 248 239 233 224 218 226 234 229 225 223 226 230 230 234
220 220 220 217 217 217 212 211 212 208 207 208 206 203 201 200 202 203 201 202 203 203 200 199 200 197 194 195 194 202 214 207 202 199 180 184 201 198 200 205 206 205 202 200 201 206 207 208 205 198 206 223 202 224 231 221 235 237 224 230 242 244 259 260 244 239 224 226 224 211 234 246 225 222 230 227 221 221 221 226 232 230 230 230 233 236 236 237
219 218 218 217 215 214 212 211 211 209 206 207 206 203 202 202 201 201 201 201 203 204 198 196 201 200 194 195 202 206 205 205 204 201 196 202 208 204 202 202 205 207 207 205 206 209 209 209 205 197 197 195 173 205 256 236 237 246 221 218 258 256 268 248 234 226 203 218 217 195 275 264 235 230 229 232 223 219 225 229 234 235 236 236 238 240 241 244
218 217 217 215 213 212 210 210 210 208 206 205 205 202 202 202 200 198 200 200 202 205 197 193 202 202 194 197 208 208 204 205 204 205 214 222 214 205 203 201 204 207 210 213 212 211 209 209 208 203 198 184 163 175 273 242 224 236 207 179 257 279 281 234 214 199 193 214 192 171 243 251 238 239 233 235 229 224 233 235 236 238 240 240 239 241 243 246
216 217 216 213 213 211 209 209 209 209 206 204 203 200 200 200 198 197 198 199 200 204 199 193 200 200 196 203 212 210 207 208 205 205 214 220 215 205 202 202 203 205 208 211 213 211 207 207 210 209 206 200 183 214 308 337 200 209 173 188 209 216 273 245 192 165 175 225 188 167 234 249 252 253 239 239 236 232 235 238 239 240 242 242 242 243 245 248
214 215 214 212 212 210 209 209 208 210 207 204 203 199 197 198 197 196 196 198 198 201 199 196 198 194 194 208 214 211 210 210 202 201 208 211 211 207 200 199 201 202 204 206 209 208 203 202 204 203 208 210 208 299 325 344 332 169 195 218 185 203 267 292 193 172 179 217 189 172 236 259 269 263 251 245 240 235 234 240 243 243 245 245 246 246 248 251
213 212 213 212 210 208 209 208 206 208 208 204 202 200 198 198 195 194 195 195 195 198 199 199 197 187 184 206 208 208 211 209 199 197 205 205 210 210 199 194 194 197 198 201 205 203 196 194 193 190 192 199 196 113 85 248 254 222 213 208 172 190 233 299 233 195 194 168 189 203 241 266 274 264 253 240 239 236 233 242 247 247 249 248 249 250 250 252
212 210 211 209 207 205 205 207 204 205 208 204 198 196 196 195 192 191 192 192 193 196 198 203 201 192 192 200 195 200 205 205 197 194 203 204 210 211 194 185 186 191 191 192 197 195 191 187 180 186 187 175 158 133 164 222 221 212 218 217 212 185 186 225 275 221 208 168 210 220 241 246 250 278 265 219 237 238 233 246 255 257 258 254 254 254 253 252
211 209 208 205 204 202 200 204 203 203 206 201 195 191 190 191 189 186 184 184 185 188 197 203 201 201 213 196 190 199 202 196 190 193 201 201 204 203 189 181 181 184 180 177 185 183 180 180 169 171 189 177 168 177 199 212 195 187 195 206 219 189 192 204 234 214 196 198 230 215 243 251 254 271 264 254 253 246 240 249 257 260 263 261 259 257 254 252
209 208 206 203 202 200 200 203 203 202 200 196 193 187 184 184 180 180 180 179 177 177 192 193 189 194 242 192 189 199 199 189 186 193 199 195 190 186 184 182 179 178 170 160 183 179 166 158 163 182 203 199 196 198 202 183 163 180 181 169 163 179 224 217 241 228 187 197 235 218 231 252 254 256 254 255 256 257 258 257 258 260 262 262 260 258 255 253
209 208 205 201 200 199 201 202 203 201 193 189 186 176 171 169 166 174 177 179 181 180 187 192 193 198 224 178 182 187 188 184 186 191 195 192 181 176 178 175 171 173 172 166 181 178 169 167 194 204 207 202 203 201 197 165 144 153 151 167 176 191 230 224 243 275 195 198 236 225 228 251 257 257 251 255 258 261 264 261 258 259 259 259 258 257 255 254
207 208 206 202 198 197 199 199 201 199 189 187 182 171 169 168 166 169 167 174 187 186 196 199 194 197 166 170 180 179 173 174 185 188 190 187 176 171 171 167 161 172 191 171 140 159 176 191 209 209 208 200 202 199 193 184 146 143 159 185 201 202 233 231 228 300 164 192 257 248 240 254 261 265 254 253 254 252 257 256 255 256 256 256 255 255 257 258
203 203 204 201 196 196 196 196 199 197 191 188 179 174 179 178 180 179 168 163 184 188 200 193 189 195 188 176 180 177 168 165 181 187 187 184 178 174 169 168 167 176 185 160 128 153 185 212 214 208 201 192 194 195 199 197 161 158 157 164 210 206 255 286 268 332 89 183 270 274 257 252 255 264 257 247 238 241 251 253 253 254 253 254 253 254 256 258
201 201 201 198 194 194 193 194 196 194 192 187 179 177 182 181 184 181 168 143 167 186 188 177 185 192 189 179 177 173 169 168 173 182 186 185 182 180 171 168 179 178 172 166 171 177 190 221 217 195 177 185 190 188 192 191 178 185 153 157 211 171 159 258 283 308 266 198 257 279 280 264 251 267 266 249 240 243 252 255 255 254 252 254 255 256 257 258
199 200 200 196 192 191 191 191 191 192 195 190 182 180 179 181 186 179 162 101 128 185 178 175 184 191 188 176 177 177 175 178 180 181 183 182 177 177 177 171 174 179 179 188 189 192 209 215 174 155 177 192 188 177 181 190 207 211 187 189 196 155 176 214 241 294 309 303 325 340 295 276 241 246 262 253 238 238 247 252 253 252 251 255 257 257 257 258
198 199 199 194 189 188 189 188 186 191 194 189 185 183 178 180 184 177 160 70 96 180 194 189 187 195 192 179 178 180 179 184 188 186 183 181 175 170 178 177 175 186 189 192 192 204 221 171 137 167 197 183 173 182 189 192 204 221 216 203 186 160 175 184 156 100 331 300 324 36 286 281 219 219 246 253 235 230 240 244 247 248 249 250 252 255 256 257
196 195 197 194 188 187 187 186 186 190 189 184 185 183 180 180 181 177 161 53 239 173 178 188 183 196 196 189 176 173 182 195 192 190 185 184 181 170 169 175 179 196 185 187 198 210 221 168 157 187 186 161 178 201 197 187 197 228 204 169 167 165 175 170 148 164 230 255 289 106 228 276 271 219 237 249 249 241 239 244 247 248 249 248 248 253 255 257
195 193 195 195 189 186 186 186 186 185 182 184 184 179 181 181 177 175 161 21 236 156 151 179 181 186 191 189 173 165 181 176 176 190 185 184 185 175 169 173 176 192 174 167 208 196 179 178 175 182 172 165 190 205 197 181 195 232 149 138 159 169 177 172 152 185 224 262 303 121 164 273 279 249 208 219 248 255 246 249 252 249 250 249 249 251 253 255
196 193 194 194 190 187 188 186 183 180 184 188 181 175 179 178 173 173 167 268 184 142 149 173 178 180 177 177 178 175 152 161 163 188 184 184 186 176 174 187 179 179 169 166 203 195 174 187 186 178 173 179 201 205 184 173 196 223 149 144 157 146 148 152 142 176 268 359 266 235 122 273 275 255 180 203 234 246 242 237 245 249 249 249 251 253 254 256
196 194 193 193 190 189 192 190 183 182 187 188 178 172 172 170 167 165 176 200 146 117 155 162 164 172 164 164 180 188 168 166 161 175 182 185 185 180 185 194 185 171 177 186 201 191 177 202 193 177 180 196 203 185 158 172 197 189 140 120 110 98 93 107 120 130 77 300 246 228 157 229 272 263 179 205 235 241 245 233 235 246 249 251 252 256 259 259
195 194 193 191 185 187 191 190 186 186 185 181 176 172 167 163 161 159 205 201 109 107 149 156 161 161 158 153 176 189 174 160 145 162 180 189 185 185 186 190 185 163 184 203 210 209 16 192 179 177 197 184 147 141 162 172 152 122 106 89 85 61 56 77 76 106 141 253 246 226 182 192 268 270 175 195 217 216 232 231 232 243 248 251 252 255 259 259
193 192 194 189 182 184 185 179 182 185 181 176 172 167 163 157 154 188 192 162 97 140 142 150 164 155 159 159 164 179 166 152 156 155 172 194 186 181 164 174 176 162 186 202 212 235 354 141 159 187 189 153 120 135 160 150 137 125 100 112 119 61 59 102 59 142 206 242 247 227 189 182 241 253 161 198 224 197 214 215 221 237 245 249 250 252 256 256
192 190 192 189 182 183 183 178 178 181 180 176 168 160 157 150 195 197 166 139 145 188 152 149 164 155 162 170 171 179 170 166 177 163 166 183 193 186 176 180 173 175 196 188 192 207 212 203 186 171 166 153 140 125 125 147 154 145 121 139 159 178 191 197 201 197 217 239 253 203 174 186 236 252 257 264 268 255 238 225 223 234 245 251 253 254 256 259
189 187 188 188 183 182 184 182 178 176 176 173 165 157 158 193 188 161 138 161 178 184 156 153 164 160 161 170 180 183 178 175 177 175 178 182 193 203 205 206 194 185 186 181 184 184 193 225 201 152 156 171 167 147 158 175 172 171 165 170 182 183 194 210 212 211 224 241 273 105 155 211 252 261 259 253 248 239 241 242 239 241 249 257 262 263 264 262
188 185 184 186 185 181 182 181 178 176 172 166 160 158 181 193 166 125 144 196 223 130 152 152 155 159 164 174 180 174 178 191 177 174 182 184 193 205 215 227 219 202 91 160 182 182 193 213 190 172 168 180 183 178 176 172 179 190 185 180 186 183 196 207 204 206 219 244 269 126 167 207 222 246 242 241 251 241 236 239 243 248 253 261 268 267 264 254
184 182 182 185 184 179 181 180 178 178 170 161 157 175 184 179 146 142 155 176 166 134 141 145 147 154 170 178 175 177 187 192 177 182 189 186 195 200 201 214 207 173 122 166 186 180 201 236 200 176 166 174 183 184 173 165 185 201 177 185 203 198 187 186 201 196 197 240 230 191 221 222 234 280 276 254 283 269 244 241 247 254 255 257 262 261 259 254
176 177 182 187 182 178 181 179 177 176 168 159 163 197 177 160 157 168 157 152 166 145 134 144 151 153 170 173 170 183 188 150 165 188 204 196 208 205 195 195 191 189 174 169 151 151 189 248 191 160 162 181 187 181 172 172 175 179 184 200 218 205 168 159 262 143 123 224 225 206 248 265 278 286 269 244 248 269 263 253 249 251 252 254 258 259 259 259
171 173 179 184 182 180 183 179 174 172 167 161 187 187 152 42 172 159 140 135 143 144 140 149 162 157 163 169 178 177 170 131 166 183 197 192 209 205 196 185 178 192 216 190 135 173 167 92 93 168 178 197 192 181 182 191 178 156 194 192 159 18 120 150 239 84 108 234 231 206 234 244 245 266 268 227 224 227 237 248 244 248 252 255 256 256 257 258
170 170 170 178 184 182 182 180 173 167 164 167 184 160 78 178 186 151 139 135 134 146 150 155 158 163 167 169 179 174 169 173 175 179 189 189 204 192 188 187 173 186 203 201 204 311 160 88 293 194 186 182 173 165 194 223 204 95 203 186 142 176 204 176 198 195 192 231 245 221 231 234 224 241 259 216 215 213 212 230 241 247 248 249 252 253 254 257
168 168 162 173 183 183 180 178 172 165 164 179 178 163 99 154 183 173 152 142 134 147 159 162 147 164 176 172 172 170 175 184 174 174 190 189 206 191 181 185 185 184 185 179 178 266 172 186 265 241 200 152 142 168 192 213 216 7 269 194 156 200 209 191 203 211 205 223 246 243 239 236 229 235 239 231 213 201 207 221 231 242 245 245 249 253 255 258
163 164 156 170 180 185 180 174 168 165 169 182 170 159 149 135 115 177 158 146 129 133 163 170 156 159 173 176 173 169 181 191 178 180 195 183 196 208 185 181 181 175 174 171 171 172 136 192 220 338 329 173 167 191 192 193 196 196 203 191 184 201 202 198 220 223 222 222 235 250 251 247 240 230 227 226 212 194 203 214 222 237 244 246 249 253 257 257
158 156 153 168 177 180 174 170 166 163 166 167 151 123 143 143 124 155 152 140 119 67 136 153 158 162 169 174 171 166 175 187 185 187 198 192 199 228 200 188 171 152 165 173 181 180 159 191 198 174 181 195 198 203 201 198 190 191 203 196 193 198 189 199 213 210 222 222 207 230 253 255 249 193 196 210 207 195 201 207 214 228 237 244 247 249 252 251
153 141 153 165 175 176 168 163 133 136 151 163 142 128 143 139 127 145 136 125 114 72 96 114 136 157 164 172 169 166 168 180 195 190 193 207 210 213 199 192 176 156 158 179 193 184 149 156 195 202 202 203 201 91 101 173 170 184 215 210 209 211 195 206 214 199 203 218 213 225 261 265 254 189 195 206 200 201 205 206 212 226 234 242 247 250 254 252
128 101 142 159 172 177 168 148 63 137 114 146 128 120 139 130 112 152 143 131 118 69 96 106 146 157 165 173 160 164 168 177 197 194 193 210 217 218 198 186 172 160 161 178 186 174 102 125 192 213 274 286 305 72 55 60 115 181 219 211 213 218 213 220 227 214 203 212 219 230 254 265 259 196 212 246 217 210 210 207 212 222 231 239 247 254 256 248
101 97 127 154 169 175 171 135 161 150 109 132 121 108 129 119 133 160 156 150 145 125 126 142 179 155 154 161 151 169 177 178 200 202 199 207 217 221 201 184 173 168 177 183 173 171 174 175 189 203 220 219 152 165 189 137 168 206 213 209 209 212 220 234 247 263 247 213 215 223 240 256 263 151 190 271 267 240 228 218 216 222 231 238 243 246 244 239
110 94 100 149 165 172 171 118 161 156 138 139 139 144 140 109 153 163 154 144 139 134 135 153 158 116 117 137 115 163 179 164 173 199 206 226 227 226 198 188 183 180 193 191 173 168 182 189 188 200 209 203 198 205 205 187 186 205 206 209 211 209 212 221 229 233 232 216 215 221 233 247 263 302 248 268 284 268 252 235 228 230 235 241 246 247 249 250
120 103 100 128 150 160 154 125 149 158 149 145 144 157 152 134 149 160 148 142 143 123 111 112 127 98 96 147 118 153 191 177 102 173 201 214 218 266 199 193 191 190 198 190 169 159 169 214 201 209 217 218 216 210 184 150 161 183 195 205 211 209 208 213 220 222 224 225 225 225 232 250 259 257 259 287 270 249 256 250 237 235 238 243 248 250 252 254
112 112 138 115 88 112 110 124 149 156 160 155 149 163 160 148 141 150 140 161 173 147 90 51 150 145 167 167 143 157 191 182 144 170 200 209 217 332 218 198 197 197 198 188 172 164 134 211 208 216 224 228 228 199 177 164 172 188 197 202 207 207 205 211 221 222 216 223 233 229 224 245 257 252 235 275 259 248 262 253 233 232 235 239 246 253 258 259
108 103 122 126 123 153 139 157 163 142 135 147 141 156 158 152 153 160 145 132 164 157 106 89 180 175 170 164 152 147 157 166 218 215 202 204 196 67 181 203 215 205 199 187 180 174 160 212 210 211 224 233 228 191 188 179 176 188 196 199 202 202 202 210 221 225 222 226 244 251 238 245 258 256 214 198 228 225 240 244 237 240 245 249 257 262 263 263
106 102 98 104 98 73 118 144 153 140 127 133 120 151 160 158 160 160 112 117 156 184 142 150 179 172 162 157 136 146 164 170 196 206 188 187 187 163 156 185 244 218 195 183 187 171 154 218 216 205 223 235 227 202 196 188 175 182 192 194 193 196 203 214 222 227 234 242 263 284 285 272 265 262 227 222 234 232 245 253 251 251 252 253 257 256 257 258
98 105 113 103 83 82 102 125 143 139 135 134 124 146 158 156 157 146 66 129 162 195 161 149 164 160 155 151 128 156 184 181 192 200 181 169 186 184 176 188 195 165 171 192 203 176 171 217 212 184 219 241 233 219 216 211 201 200 201 193 182 184 195 210 223 230 236 242 249 260 271 272 266 268 300 278 250 235 246 253 247 247 247 245 248 248 251 252
99 110 122 115 85 83 115 122 139 138 131 132 141 152 147 153 159 141 55 38 138 165 160 147 150 139 130 150 151 173 182 172 182 188 175 172 183 177 178 184 139 131 170 198 193 169 180 216 194 166 215 238 224 214 221 227 230 231 224 204 187 186 190 200 209 213 216 223 233 244 254 259 262 277 331 304 269 234 237 243 241 245 247 245 246 245 246 247
109 109 114 117 89 18 112 115 120 131 134 124 138 136 132 150 160 139 108 39 63 133 154 150 143 118 109 174 194 188 174 164 159 172 173 175 164 151 158 172 158 149 163 167 121 159 179 203 205 186 216 237 222 209 212 223 235 236 225 207 202 204 206 211 212 207 207 209 215 230 238 246 257 264 269 271 265 246 242 244 241 242 244 246 247 247 248 249
Height
1441 1445 1447 1450 1453 1455 1457 1460 1463 1466 1470 1472 1475 1478 1481 1484 1487 1488 1490 1493 1496 1499 1501 1503 1507 1510 1513 1515 1517 1518 1521 1522 1524 1525 1524 1527 1531 1532 1533 1536 1538 1540 1542 1543 1545 1546 1546 1547 1548 1549 1550 1550 1551 1550 1551 1551 1551 1552 1555 1559 1561 1561 1560 1557 1557 1557 1556 1555 1554 1555 1555 1556 1557 1558 1558 1559 1559 1558 1558 1559 1558 1558 1558 1558 1558 1559 1559 1559
1438 1442 1445 1447 1450 1453 1455 1457 1460 1464 1467 1470 1473 1475 1478 1481 1485 1487 1489 1492 1494 1497 1499 1502 1505 1508 1511 1514 1515 1517 1519 1521 1523 1521 1522 1527 1529 1530 1533 1535 1537 1539 1541 1543 1544 1545 1546 1547 1548 1549 1550 1550 1550 1550 1550 1551 1551 1552 1556 1560 1559 1556 1554 1552 1553 1554 1554 1554 1553 1554 1555 1556 1557 1557 1558 1559 1559 1558 1558 1558 1558 1558 1557 1557 1558 1558 1559 1559
1435 1439 1442 1444 1447 1450 1452 1455 1458 1461 1464 1467 1470 1473 1476 1479 1482 1485 1488 1490 1492 1495 1498 1500 1503 1506 1510 1512 1514 1517 1518 1520 1520 1517 1520 1526 1526 1528 1533 1534 1535 1538 1540 1541 1543 1544 1545 1547 1548 1549 1549 1550 1550 1551 1550 1551 1551 1552 1555 1558 1555 1552 1551 1550 1552 1552 1552 1553 1552 1553 1554 1555 1556 1557 1558 1558 1558 1558 1557 1557 1557 1556 1556 1556 1557 1557 1558 1558
1432 1435 1438 1441 1444 1447 1450 1452 1455 1458 1461 1465 1468 1471 1474 1477 1480 1483 1486 1488 1491 1493 1496 1499 1502 1505 1508 1510 1513 1515 1518 1521 1514 1512 1520 1523 1525 1528 1531 1533 1535 1537 1539 1540 1542 1543 1545 1546 1547 1548 1549 1550 1550 1551 1551 1550 1551 1551 1552 1554 1552 1550 1551 1549 1550 1551 1552 1552 1552 1553 1554 1555 1555 1556 1557 1557 1559 1558 1555 1553 1554 1554 1554 1555 1556 1557 1557 1557
1429 1432 1435 1438 1441 1444 1447 1450 1452 1455 1459 1462 1465 1468 1472 1474 1477 1481 1484 1487 1489 1491 1494 1498 1500 1503 1507 1509 1512 1513 1518 1521 1509 1509 1519 1521 1523 1527 1529 1532 1533 1535 1537 1539 1540 1542 1544 1545 1547 1548 1549 1550 1550 1551 1550 1549 1550 1551 1550 1549 1549 1550 1550 1549 1550 1551 1551 1552 1553 1553 1553 1554 1554 1555 1556 1556 1557 1555 1552 1551 1552 1553 1553 1554 1555 1555 1556 1556
1425 1428 1431 1435 1439 1442 1445 1447 1450 1453 1456 1459 1463 1466 1469 1472 1475 1478 1481 1484 1487 1489 1492 1496 1499 1502 1505 1507 1510 1511 1513 1513 1505 1508 1516 1518 1522 1525 1528 1531 1532 1534 1536 1537 1539 1541 1542 1545 1546 1547 1548 1549 1550 1550 1549 1549 1550 1550 1549 1548 1549 1549 1549 1549 1550 1551 1550 1551 1552 1552 1552 1552 1554 1554 1554 1554 1553 1552 1551 1551 1552 1553 1553 1553 1554 1554 1554 1554
1421 1425 1428 1432 1436 1439 1442 1445 1448 1451 1453 1457 1460 1463 1466 1469 1473 1476 1479 1482 1485 1488 1491 1494 1497 1499 1503 1505 1508 1509 1507 1505 1505 1508 1511 1516 1521 1523 1527 1529 1530 1532 1534 1536 1537 1539 1541 1543 1545 1547 1548 1549 1550 1550 1549 1549 1550 1550 1549 1547 1548 1549 1548 1549 1550 1550 1550 1551 1551 1551 1551 1551 1552 1552 1553 1552 1551 1551 1552 1551 1552 1553 1553 1553 1553 1553 1553 1553
1417 1421 1425 1428 1433 1436 1439 1442 1445 1449 1451 1454 1457 1461 1464 1467 1470 1474 1477 1480 1483 1487 1489 1492 1495 1497 1500 1502 1503 1506 1502 1502 1506 1507 1509 1513 1518 1521 1525 1526 1528 1530 1531 1534 1535 1538 1540 1542 1544 1546 1548 1548 1549 1549 1549 1550 1550 1550 1548 1546 1547 1548 1547 1548 1550 1550 1550 1550 1551 1551 1551 1550 1551 1551 1551 1549 1550 1551 1552 1551 1551 1552 1552 1552 1552 1552 1552 1552
1414 1417 1421 1425 1429 1433 1436 1440 1443 1446 1449 1452 1455 1458 1462 1465 1468 1472 1475 1478 1481 1485 1487 1490 1492 1494 1498 1499 1501 1501 1495 1500 1507 1507 1508 1511 1515 1519 1521 1523 1525 1527 1530 1533 1535 1537 1538 1540 1543 1544 1547 1547 1548 1548 1548 1551 1550 1548 1547 1547 1547 1547 1547 1548 1548 1549 1550 1550 1551 1551 1550 1550 1550 1551 1549 1547 1549 1550 1551 1551 1550 1551 1551 1551 1551 1551 1551 1551
1410 1413 1418 1422 1425 1430 1433 1437 1441 1443 1446 1449 1452 1456 1459 1463 1466 1469 1473 1476 1479 1482 1485 1488 1490 1492 1495 1496 1499 1497 1492 1500 1506 1506 1508 1509 1511 1515 1517 1520 1523 1525 1528 1531 1533 1535 1537 1539 1542 1544 1546 1546 1547 1548 1548 1549 1548 1546 1546 1547 1547 1546 1546 1547 1547 1548 1549 1550 1550 1550 1550 1549 1550 1551 1547 1546 1548 1549 1549 1549 1549 1550 1550 1550 1550 1550 1550 1550
1406 1410 1414 1419 1422 1426 1430 1434 1438 1441 1443 1447 1450 1454 1457 1460 1464 1467 1471 1474 1477 1480 1482 1485 1488 1489 1491 1493 1494 1492 1493 1500 1503 1505 1507 1508 1509 1511 1513 1517 1520 1522 1525 1528 1531 1533 1536 1540 1542 1544 1546 1546 1547 1547 1547 1547 1547 1546 1547 1547 1547 1546 1546 1547 1547 1547 1548 1549 1549 1549 1549 1549 1550 1548 1545 1545 1547 1547 1547 1548 1548 1548 1548 1549 1549 1549 1549 1549
1403 1406 1411 1415 1419 1423 1427 1431 1435 1439 1441 1445 1448 1452 1455 1458 1462 1465 1469 1472 1475 1478 1480 1483 1486 1487 1490 1491 1490 1490 1494 1498 1501 1504 1505 1506 1509 1510 1512 1515 1518 1521 1523 1526 1529 1532 1536 1538 1541 1543 1544 1545 1546 1547 1546 1545 1546 1546 1547 1548 1547 1546 1547 1546 1546 1547 1548 1548 1548 1549 1552 1551 1547 1543 1542 1545 1546 1546 1546 1546 1546 1546 1547 1547 1547 1547 1547 1547
1399 1403 1407 1412 1416 1419 1424 1428 1433 1436 1439 1442 1446 1450 1453 1457 1460 1463 1467 1470 1473 1476 1479 1481 1483 1486 1489 1489 1487 1490 1494 1497 1499 1502 1503 1505 1508 1509 1512 1514 1517 1521 1523 1525 1528 1532 1535 1537 1540 1541 1543 1544 1545 1546 1545 1544 1546 1546 1547 1548 1548 1549 1547 1544 1545 1547 1547 1548 1547 1550 1556 1550 1541 1539 1541 1543 1545 1545 1544 1544 1544 1544 1544 1545 1545 1545 1545 1545
1395 1399 1404 1409 1413 1416 1421 1425 1429 1433 1437 1440 1444 1448 1452 1455 1458 1462 1465 1469 1472 1475 1478 1479 1481 1484 1487 1487 1487 1490 1493 1495 1497 1499 1501 1503 1505 1508 1511 1513 1517 1520 1523 1526 1529 1532 1534 1537 1540 1541 1543 1543 1543 1544 1544 1545 1546 1546 1548 1548 1549 1552 1548 1542 1544 1545 1546 1548 1546 1550 1555 1547 1538 1539 1541 1541 1542 1543 1542 1541 1542 1542 1542 1542 1543 1543 1542 1543
1392 1396 1400 1405 1409 1413 1418 1423 1427 1432 1436 1440 1443 1446 1449 1453 1457 1460 1464 1467 1471 1474 1477 1479 1480 1482 1485 1485 1486 1489 1491 1493 1495 1497 1500 1502 1504 1506 1508 1512 1516 1520 1523 1527 1529 1532 1534 1536 1539 1540 1541 1542 1544 1545 1545 1546 1546 1546 1549 1551 1550 1552 1548 1542 1542 1543 1544 1546 1546 1549 1553 1545 1538 1538 1538 1540 1540 1540 1539 1539 1540 1540 1540 1540 1540 1540 1540 1540
1388 1392 1397 1402 1407 1411 1415 1421 1426 1431 1436 1440 1442 1444 1448 1451 1455 1459 1463 1467 1471 1473 1475 1478 1478 1479 1481 1482 1484 1486 1488 1490 1494 1497 1499 1501 1504 1505 1507 1511 1515 1519 1523 1526 1529 1532 1533 1536 1537 1538 1540 1541 1543 1546 1548 1550 1548 1545 1547 1550 1550 1551 1550 1545 1543 1542 1542 1544 1545 1548 1548 1542 1538 1535 1535 1537 1537 1537 1537 1536 1537 1537 1538 1538 1538 1538 1538 1538
1385 1389 1393 1398 1404 1407 1413 1418 1423 1428 1434 1437 1441 1444 1447 1451 1455 1459 1463 1466 1469 1472 1474 1475 1476 1478 1479 1478 1480 1481 1482 1487 1492 1496 1498 1500 1503 1504 1507 1510 1514 1518 1521 1524 1528 1530 1532 1535 1536 1537 1538 1539 1541 1545 1551 1553 1549 1546 1546 1549 1549 1550 1551 1548 1544 1542 1543 1545 1545 1546 1545 1538 1535 1534 1534 1535 1535 1536 1536 1535 1535 1535 1535 1536 1536 1536 1536 1535
1381 1386 1390 1395 1400 1405 1410 1415 1419 1425 1431 1435 1439 1442 1446 1450 1455 1458 1460 1463 1466 1471 1474 1474 1476 1479 1477 1474 1475 1477 1479 1485 1491 1494 1497 1499 1501 1504 1506 1509 1513 1516 1520 1524 1527 1528 1532 1534 1535 1537 1538 1539 1539 1541 1546 1544 1541 1545 1546 1548 1550 1549 1548 1547 1543 1541 1542 1544 1545 1546 1546 1539 1533 1535 1535 1534 1535 1535 1534 1534 1534 1533 1533 1534 1534 1533 1533 1532
1378 1383 1387 1392 1397 1402 1407 1411 1416 1422 1429 1434 1437 1440 1446 1450 1453 1456 1457 1458 1461 1466 1468 1467 1469 1473 1472 1470 1472 1475 1479 1485 1489 1492 1494 1496 1500 1503 1506 1509 1512 1515 1518 1522 1525 1526 1528 1532 1536 1537 1536 1534 1533 1532 1535 1534 1534 1539 1542 1545 1547 1547 1547 1545 1542 1539 1540 1543 1544 1544 1545 1538 1532 1533 1534 1533 1534 1534 1533 1533 1532 1532 1531 1531 1531 1529 1529 1528
1375 1380 1385 1389 1394 1398 1403 1408 1414 1421 1427 1432 1433 1435 1441 1445 1448 1452 1455 1456 1457 1459 1461 1460 1462 1467 1468 1469 1472 1475 1479 1484 1487 1489 1492 1494 1497 1501 1505 1508 1511 1515 1516 1517 1521 1523 1525 1530 1533 1529 1526 1526 1527 1529 1532 1533 1533 1536 1540 1543 1544 1544 1545 1543 1541 1539 1539 1542 1542 1541 1542 1538 1531 1531 1532 1532 1532 1532 1531 1530 1530 1529 1529 1528 1527 1526 1526 1525
1372 1377 1382 1387 1391 1395 1400 1405 1412 1419 1425 1427 1427 1428 1432 1434 1437 1441 1447 1454 1458 1458 1459 1459 1462 1467 1468 1470 1471 1472 1477 1482 1485 1487 1490 1493 1495 1499 1503 1506 1509 1514 1514 1515 1519 1521 1524 1527 1523 1517 1518 1522 1525 1528 1531 1533 1533 1534 1538 1541 1543 1544 1543 1541 1540 1540 1541 1543 1541 1539 1541 1539 1532 1528 1529 1529 1530 1530 1527 1526 1526 1525 1524 1524 1523 1522 1523 1522
1368 1373 1379 1384 1388 1392 1397 1403 1408 1416 1422 1423 1424 1425 1428 1429 1431 1434 1439 1449 1455 1457 1459 1460 1463 1467 1468 1469 1471 1472 1475 1479 1483 1485 1487 1492 1495 1496 1499 1503 1506 1509 1512 1514 1518 1522 1526 1522 1512 1510 1516 1522 1525 1528 1530 1533 1534 1535 1538 1541 1544 1545 1544 1543 1540 1540 1542 1543 1542 1540 1540 1538 1532 1526 1525 1526 1526 1525 1523 1521 1521 1521 1521 1519 1519 1519 1519 1519
1365 1370 1377 1381 1385 1390 1395 1400 1405 1412 1416 1418 1420 1423 1426 1429 1433 1437 1440 1448 1454 1456 1458 1459 1462 1465 1467 1468 1470 1472 1473 1474 1479 1482 1484 1488 1492 1494 1496 1500 1503 1506 1510 1512 1514 1519 1521 1512 1505 1512 1519 1523 1526 1528 1530 1534 1536 1536 1537 1541 1544 1543 1544 1545 1543 1541 1541 1542 1541 1541 1539 1534 1530 1526 1520 1520 1521 1520 1519 1517 1517 1517 1516 1515 1514 1516 1516 1516
1362 1368 1374 1378 1382 1387 1393 1399 1403 1408 1410 1414 1418 1422 1425 1429 1432 1437 1442 1450 1454 1456 1458 1459 1461 1462 1464 1467 1468 1470 1471 1472 1475 1478 1481 1484 1489 1494 1495 1497 1502 1506 1509 1509 1509 1512 1510 1504 1506 1515 1518 1519 1524 1528 1531 1535 1537 1537 1536 1538 1540 1541 1542 1542 1543 1541 1540 1541 1539 1542 1541 1527 1521 1525 1517 1512 1516 1515 1514 1513 1512 1512 1511 1511 1511 1511 1511 1511
1358 1365 1371 1375 1379 1384 1393 1398 1400 1402 1407 1414 1419 1422 1427 1430 1433 1436 1442 1451 1456 1457 1459 1459 1460 1461 1462 1466 1467 1469 1472 1473 1473 1476 1479 1482 1485 1490 1493 1496 1500 1504 1506 1507 1509 1510 1506 1504 1508 1512 1515 1518 1525 1528 1529 1531 1535 1537 1534 1532 1535 1538 1539 1540 1542 1543 1546 1547 1541 1546 1549 1526 1511 1517 1513 1508 1511 1511 1510 1508 1506 1507 1506 1507 1507 1505 1506 1506
1355 1362 1368 1372 1376 1383 1393 1394 1394 1399 1406 1413 1417 1422 1428 1430 1434 1437 1442 1455 1459 1456 1458 1459 1459 1459 1461 1464 1466 1469 1473 1472 1472 1475 1478 1482 1484 1486 1491 1495 1496 1499 1502 1505 1509 1507 1504 1504 1505 1509 1514 1519 1525 1527 1525 1527 1534 1536 1530 1529 1534 1536 1538 1540 1542 1545 1551 1552 1545 1547 1553 1534 1512 1511 1511 1508 1509 1507 1507 1505 1503 1503 1501 1501 1502 1500 1501 1501
1353 1359 1365 1370 1373 1380 1386 1386 1389 1396 1402 1409 1414 1422 1427 1430 1435 1436 1443 1461 1459 1449 1454 1458 1457 1456 1457 1461 1464 1468 1471 1469 1471 1475 1475 1480 1484 1484 1489 1492 1494 1497 1498 1504 1509 1502 1500 1504 1505 1507 1513 1519 1522 1521 1520 1524 1532 1533 1526 1528 1534 1535 1538 1541 1542 1546 1548 1550 1548 1545 1551 1546 1523 1508 1506 1507 1508 1505 1504 1504 1501 1499 1498 1497 1497 1496 1496 1496
1351 1356 1362 1368 1372 1377 1381 1383 1387 1392 1397 1405 1411 1419 1425 1429 1435 1434 1443 1459 1449 1439 1447 1452 1453 1455 1455 1460 1462 1465 1466 1464 1468 1473 1474 1478 1481 1482 1487 1488 1490 1493 1494 1501 1504 1495 1494 1500 1501 1503 1510 1515 1513 1512 1515 1521 1527 1528 1525 1527 1532 1535 1539 1540 1542 1547 1549 1552 1551 1545 1549 1552 1525 1501 1503 1504 1502 1501 1498 1499 1498 1494 1494 1492 1491 1491 1491 1492
1350 1355 1360 1366 1372 1377 1382 1384 1386 1389 1395 1403 1411 1418 1422 1427 1433 1435 1443 1447 1433 1431 1441 1445 1450 1454 1455 1459 1462 1463 1464 1464 1466 1470 1473 1477 1478 1480 1483 1484 1486 1490 1492 1495 1495 1493 1494 1495 1497 1501 1506 1508 1506 1508 1514 1519 1523 1525 1525 1528 1532 1537 1539 1542 1544 1546 1552 1554 1550 1543 1547 1551 1522 1493 1502 1507 1498 1495 1492 1493 1494 1490 1489 1487 1487 1487 1486 1488
1349 1354 1359 1364 1370 1375 1381 1386 1388 1391 1396 1403 1410 1416 1420 1426 1431 1436 1442 1436 1426 1431 1438 1441 1446 1449 1452 1457 1460 1463 1464 1464 1465 1468 1472 1474 1475 1478 1480 1482 1486 1490 1493 1494 1494 1495 1494 1494 1496 1499 1502 1503 1505 1511 1513 1516 1521 1524 1527 1531 1535 1539 1540 1543 1545 1545 1554 1552 1541 1535 1538 1548 1528 1489 1491 1500 1490 1488 1489 1489 1490 1486 1484 1483 1483 1483 1483 1484
1347 1352 1358 1363 1365 1370 1377 1383 1387 1391 1397 1403 1409 1415 1420 1426 1429 1432 1432 1424 1424 1433 1435 1439 1444 1445 1449 1453 1457 1461 1463 1464 1465 1466 1470 1473 1474 1476 1478 1482 1487 1491 1495 1496 1496 1497 1497 1497 1496 1496 1498 1500 1505 1512 1514 1516 1520 1523 1528 1532 1538 1544 1543 1546 1549 1549 1555 1545 1529 1525 1529 1545 1534 1491 1482 1490 1482 1482 1485 1484 1485 1482 1480 1478 1478 1479 1479 1480
1346 1351 1358 1363 1364 1368 1374 1379 1383 1389 1395 1400 1407 1413 1419 1425 1426 1424 1420 1416 1424 1431 1431 1436 1441 1442 1448 1451 1454 1458 1459 1462 1463 1463 1466 1469 1471 1472 1472 1475 1480 1485 1490 1492 1494 1496 1497 1496 1494 1493 1495 1497 1502 1513 1519 1520 1519 1522 1528 1532 1541 1549 1548 1549 1549 1545 1545 1535 1522 1523 1528 1536 1523 1487 1480 1486 1482 1483 1482 1479 1480 1478 1476 1474 1474 1475 1476 1477
1346 1351 1358 1363 1365 1368 1373 1378 1383 1387 1392 1398 1405 1411 1415 1418 1417 1413 1414 1417 1421 1424 1427 1432 1436 1438 1444 1449 1452 1454 1457 1460 1460 1461 1463 1465 1469 1470 1469 1470 1472 1475 1479 1483 1489 1494 1497 1496 1495 1495 1496 1495 1497 1507 1517 1519 1517 1519 1521 1525 1534 1542 1545 1547 1544 1539 1538 1530 1523 1526 1529 1529 1514 1486 1478 1479 1478 1480 1479 1477 1477 1474 1473 1472 1471 1474 1474 1474
1346 1351 1357 1363 1365 1369 1373 1378 1383 1386 1390 1397 1404 1410 1411 1411 1409 1408 1415 1421 1420 1420 1423 1428 1434 1439 1441 1444 1447 1449 1454 1458 1458 1460 1463 1465 1468 1469 1469 1471 1472 1473 1476 1482 1488 1489 1491 1492 1490 1490 1490 1489 1490 1494 1501 1505 1508 1508 1506 1512 1520 1523 1529 1534 1532 1532 1533 1528 1528 1530 1528 1522 1505 1482 1473 1473 1473 1474 1474 1474 1474 1471 1472 1472 1471 1472 1471 1471
1346 1352 1358 1362 1365 1369 1373 1377 1383 1385 1389 1395 1403 1406 1404 1403 1404 1408 1414 1419 1420 1422 1424 1427 1433 1440 1443 1444 1446 1446 1450 1455 1457 1460 1461 1462 1464 1464 1466 1469 1472 1474 1476 1481 1486 1486 1485 1483 1480 1481 1482 1483 1486 1489 1492 1500 1509 1508 1506 1513 1513 1508 1511 1518 1520 1520 1523 1527 1528 1526 1518 1503 1486 1471 1468 1471 1471 1471 1472 1472 1472 1470 1469 1470 1469 1467 1468 1469
1347 1352 1357 1361 1364 1369 1373 1376 1381 1384 1387 1393 1401 1402 1398 1398 1401 1404 1407 1412 1415 1418 1424 1431 1434 1438 1443 1447 1448 1448 1449 1452 1457 1460 1460 1461 1462 1461 1462 1465 1468 1472 1472 1474 1481 1484 1485 1483 1478 1480 1482 1482 1483 1486 1488 1494 1502 1507 1510 1512 1507 1502 1504 1512 1518 1517 1520 1526 1520 1512 1507 1498 1487 1471 1460 1464 1468 1468 1471 1470 1469 1468 1466 1466 1466 1463 1464 1465
1346 1350 1355 1360 1363 1368 1371 1375 1379 1382 1386 1392 1396 1396 1396 1398 1400 1401 1402 1406 1410 1413 1420 1429 1432 1433 1439 1445 1446 1447 1449 1452 1456 1459 1460 1461 1460 1457 1460 1463 1465 1469 1470 1471 1476 1477 1478 1482 1481 1480 1483 1482 1481 1485 1487 1487 1490 1499 1504 1503 1503 1508 1508 1509 1518 1521 1525 1527 1512 1501 1500 1498 1495 1476 1454 1457 1464 1464 1467 1468 1466 1466 1463 1463 1462 1459 1460 1461
1345 1349 1354 1358 1363 1367 1370 1376 1380 1381 1386 1391 1392 1394 1398 1400 1399 1400 1401 1404 1408 1413 1418 1424 1428 1430 1434 1440 1443 1445 1447 1450 1453 1456 1458 1459 1455 1451 1455 1460 1461 1464 1466 1469 1474 1474 1474 1481 1483 1479 1480 1482 1482 1487 1492 1490 1489 1493 1495 1494 1500 1510 1511 1510 1515 1517 1522 1521 1507 1496 1493 1490 1488 1471 1454 1457 1460 1459 1464 1464 1463 1462 1460 1459 1457 1455 1457 1458
1345 1350 1354 1358 1362 1367 1370 1376 1380 1382 1386 1388 1388 1393 1399 1400 1399 1400 1400 1402 1406 1412 1417 1420 1423 1429 1432 1435 1438 1442 1444 1445 1448 1452 1454 1454 1452 1446 1448 1453 1456 1459 1461 1466 1473 1474 1473 1478 1482 1480 1480 1482 1483 1487 1492 1493 1493 1494 1494 1494 1496 1500 1502 1502 1502 1501 1506 1511 1503 1494 1489 1480 1468 1455 1450 1455 1456 1458 1461 1460 1459 1458 1455 1455 1453 1452 1454 1456
1345 1350 1354 1357 1362 1367 1371 1376 1380 1381 1384 1385 1385 1391 1396 1398 1399 1400 1399 1402 1406 1411 1415 1416 1420 1426 1430 1432 1434 1439 1442 1442 1445 1449 1450 1449 1449 1446 1445 1448 1452 1455 1459 1464 1469 1472 1475 1477 1480 1482 1482 1482 1481 1481 1482 1484 1488 1492 1494 1495 1495 1496 1498 1499 1496 1493 1496 1502 1501 1496 1486 1466 1449 1443 1446 1451 1452 1454 1456 1456 1456 1454 1451 1451 1450 1450 1452 1454
1344 1349 1354 1357 1361 1366 1370 1375 1377 1379 1382 1384 1386 1391 1395 1396 1399 1400 1400 1401 1404 1409 1412 1413 1417 1421 1424 1429 1433 1436 1440 1443 1444 1446 1447 1446 1446 1446 1444 1444 1447 1452 1458 1464 1466 1469 1473 1476 1478 1482 1483 1479 1476 1473 1473 1474 1478 1484 1487 1487 1488 1490 1493 1498 1498 1492 1491 1493 1491 1491 1481 1455 1438 1439 1441 1442 1446 1448 1449 1450 1450 1449 1448 1446 1446 1448 1450 1452
1343 1349 1353 1356 1360 1364 1368 1372 1376 1378 1381 1383 1386 1389 1393 1396 1398 1400 1401 1402 1404 1408 1411 1413 1417 1419 1422 1425 1429 1433 1438 1442 1443 1444 1444 1443 1442 1442 1441 1441 1443 1448 1454 1460 1462 1462 1465 1470 1475 1478 1478 1476 1475 1475 1475 1474 1475 1480 1483 1484 1485 1487 1488 1492 1492 1487 1488 1488 1482 1486 1480 1451 1434 1438 1438 1437 1440 1441 1441 1443 1444 1445 1445 1444 1444 1446 1448 1450
1345 1349 1352 1355 1359 1363 1367 1372 1376 1378 1380 1381 1383 1387 1390 1394 1398 1400 1401 1402 1405 1408 1410 1414 1417 1419 1422 1424 1426 1430 1435 1439 1441 1441 1441 1441 1440 1438 1438 1440 1442 1446 1450 1456 1460 1462 1464 1469 1474 1477 1476 1475 1476 1476 1477 1477 1479 1481 1483 1483 1484 1486 1484 1484 1483 1479 1483 1485 1482 1488 1484 1453 1433 1436 1438 1437 1438 1437 1438 1439 1440 1442 1442 1442 1444 1445 1446 1447
1346 1350 1352 1354 1359 1362 1365 1369 1372 1376 1380 1381 1384 1389 1391 1393 1396 1399 1400 1400 1404 1407 1409 1413 1415 1416 1420 1423 1424 1426 1430 1435 1439 1440 1439 1440 1438 1436 1438 1440 1441 1444 1447 1450 1453 1457 1462 1465 1468 1474 1477 1477 1477 1478 1478 1480 1481 1479 1477 1477 1477 1480 1482 1483 1483 1482 1482 1480 1478 1484 1481 1454 1433 1434 1438 1439 1440 1439 1439 1439 1439 1440 1440 1441 1442 1443 1444 1445
1345 1352 1355 1356 1359 1361 1364 1366 1367 1372 1377 1380 1385 1389 1390 1393 1396 1397 1398 1400 1402 1404 1406 1411 1413 1414 1419 1423 1424 1425 1427 1430 1434 1437 1438 1439 1437 1436 1437 1439 1440 1441 1442 1444 1446 1450 1456 1457 1458 1464 1468 1468 1466 1465 1465 1468 1473 1475 1474 1472 1472 1475 1479 1481 1483 1486 1483 1475 1472 1476 1471 1450 1434 1436 1439 1440 1442 1442 1439 1439 1440 1439 1439 1440 1441 1442 1443 1443
1342 1350 1357 1359 1361 1362 1365 1367 1367 1370 1372 1376 1384 1387 1388 1392 1396 1396 1398 1400 1402 1404 1405 1410 1413 1414 1419 1422 1424 1427 1429 1429 1432 1434 1436 1437 1436 1436 1437 1437 1438 1439 1440 1443 1445 1449 1454 1453 1451 1452 1452 1449 1446 1445 1447 1451 1460 1469 1471 1469 1469 1470 1472 1476 1480 1481 1477 1473 1471 1467 1463 1452 1437 1435 1439 1441 1443 1443 1440 1440 1440 1438 1438 1439 1439 1440 1440 1441
1341 1348 1354 1357 1361 1364 1366 1368 1369 1370 1370 1372 1379 1384 1386 1390 1394 1397 1398 1400 1401 1403 1406 1409 1411 1412 1416 1420 1423 1428 1429 1430 1433 1433 1433 1435 1435 1436 1436 1436 1438 1438 1440 1443 1443 1447 1453 1452 1449 1448 1446 1441 1439 1442 1443 1443 1447 1455 1458 1460 1464 1466 1469 1473 1474 1471 1470 1474 1469 1458 1458 1458 1439 1430 1438 1442 1442 1443 1441 1439 1439 1437 1437 1437 1438 1439 1439 1439
1342 1348 1351 1351 1356 1361 1363 1365 1367 1369 1370 1372 1377 1382 1385 1388 1392 1395 1398 1399 1400 1402 1405 1409 1410 1409 1411 1414 1418 1425 1431 1432 1434 1434 1434 1435 1435 1436 1437 1437 1438 1438 1439 1443 1443 1445 1449 1447 1444 1446 1445 1441 1441 1445 1444 1440 1440 1444 1447 1451 1457 1460 1465 1467 1466 1465 1466 1470 1465 1455 1459 1460 1439 1429 1438 1441 1439 1441 1439 1437 1437 1436 1436 1436 1437 1438 1437 1438
1342 1348 1351 1352 1354 1357 1358 1361 1365 1369 1371 1374 1378 1382 1384 1387 1390 1392 1395 1399 1401 1401 1402 1407 1410 1410 1411 1412 1413 1420 1426 1427 1430 1433 1434 1434 1434 1435 1436 1437 1437 1437 1439 1442 1443 1444 1447 1444 1441 1444 1446 1442 1442 1446 1447 1444 1442 1444 1444 1447 1450 1454 1459 1461 1462 1463 1464 1466 1467 1463 1465 1460 1439 1431 1439 1440 1438 1440 1437 1436 1436 1435 1436 1436 1436 1437 1436 1436
1343 1347 1350 1352 1356 1359 1360 1363 1366 1370 1372 1374 1378 1382 1383 1385 1389 1391 1393 1396 1399 1401 1401 1402 1407 1409 1411 1413 1412 1415 1418 1418 1420 1425 1428 1431 1432 1433 1434 1434 1434 1437 1439 1442 1442 1443 1446 1443 1439 1444 1448 1443 1442 1447 1448 1446 1445 1446 1445 1446 1448 1452 1456 1460 1461 1462 1463 1466 1467 1467 1470 1459 1436 1431 1441 1442 1439 1439 1437 1436 1435 1434 1435 1436 1435 1435 1434 1434
1345 1347 1349 1351 1358 1363 1364 1366 1367 1369 1373 1375 1377 1381 1383 1384 1387 1390 1393 1395 1396 1398 1399 1400 1405 1409 1412 1413 1411 1411 1414 1416 1417 1418 1420 1424 1426 1427 1429 1431 1432 1434 1437 1441 1441 1442 1445 1443 1439 1444 1447 1441 1439 1444 1445 1445 1447 1446 1444 1445 1448 1450 1452 1453 1453 1454 1457 1461 1464 1467 1468 1453 1431 1433 1446 1444 1439 1440 1437 1434 1434 1434 1435 1434 1432 1431 1431 1431
1346 1349 1350 1351 1359 1366 1366 1366 1368 1369 1373 1376 1377 1379 1382 1384 1386 1387 1391 1397 1397 1396 1398 1399 1402 1408 1412 1414 1410 1409 1411 1414 1416 1417 1419 1421 1423 1424 1426 1429 1430 1432 1434 1439 1442 1442 1443 1442 1440 1443 1443 1436 1434 1437 1441 1445 1446 1440 1437 1440 1441 1442 1442 1441 1441 1443 1446 1452 1457 1458 1452 1438 1429 1436 1444 1439 1434 1436 1435 1432 1433 1433 1432 1431 1429 1428 1429 1430